Flag for Bosnia-Herzegovina Weather past 2 weeks in Mostar, Bosnia-Herzegovina

Now
91 °F

Passing clouds.


Feels Like: 89 °F
Forecast: 64 / 93 °F
Wind: 7 mph from Northeast

Location: Mostar

Current Time: Jul 2, 2015 at 6:41:14 PM

Latest Report: Jul 2, 2015 at 6:00 PM


Visibility: N/A

Pressure: 30.07 "Hg

Humidity: 26%

Dew point: 52 °F

Location of MostarLocation

Historic Weather in Mostar — Graph

°F

Mostar temperature yesterday

Maximum temperature yesterday: 90 °F (at 3:00 PM)
Minimum temperature yesterday: 59 °F (at 4:30 AM)
Average temperature yesterday: 75 °F

Past Weeks' High & Low Weather Summary

 TemperatureHumidityPressure
High93 °F (Jul 2, 4:00 PM)94% (Jun 24, 12:30 PM)30.15 "Hg (Jun 24, 12:30 PM)
Low52 °F (Jun 22, 5:30 AM)21% (Jul 2, 4:00 PM)29.74 "Hg (Jun 19, 2:00 PM)
Average73 °F46%29.94 "Hg
* Reported Jun 17 5:00 PM — Jul 2 5:30 PM, Mostar, Weather by CustomWeather, © 2015

Note: Actual official high and low records may vary slightly from our data, if they occured in-between our weather recording intervals... More about our weather records

Advertising

Mostar weather history for previous 24 hours

 ConditionsComfort  
Time TempWeatherWind HumidityBarometerVisibility
5:30 PM
Thu, Jul 2
91 °FPassing clouds.9 mph24%30.07 "HgN/A
5:00 PM91 °FPassing clouds.14 mph24%30.07 "HgN/A
4:30 PM93 °FPassing clouds.12 mph24%30.07 "HgN/A
4:00 PM93 °FPassing clouds.6 mph21%30.07 "HgN/A
3:30 PM91 °FPassing clouds.6 mph23%30.07 "HgN/A
3:00 PM91 °FPassing clouds.6 mph23%30.07 "HgN/A
2:30 PM91 °FPassing clouds.7 mph23%30.07 "HgN/A
2:00 PM90 °FPassing clouds.7 mph24%30.09 "HgN/A
1:30 PM90 °FPassing clouds.10 mph24%30.09 "HgN/A
1:00 PM88 °FPassing clouds.6 mph25%30.09 "HgN/A
12:30 PM88 °FPassing clouds.8 mph25%30.09 "HgN/A
12:00 PM88 °FPassing clouds.5 mph25%30.12 "HgN/A
11:30 AM86 °FPassing clouds.6 mph27%30.12 "HgN/A
11:00 AM84 °FPassing clouds.5 mph29%30.12 "HgN/A
10:00 AM81 °FPassing clouds.2 mph34%30.15 "HgN/A
9:00 AM77 °FSunny.2 mph42%30.15 "Hg10 mi
8:00 AM73 °FPassing clouds.3 mph44%30.15 "HgN/A
7:00 AM66 °FSunny.2 mph64%30.15 "Hg10 mi
6:00 AM61 °FClear.2 mph72%30.15 "Hg10 mi
5:00 AM61 °FClear.2 mph68%30.15 "Hg10 mi
4:00 AM63 °FClear.2 mph68%30.12 "Hg10 mi
3:00 AM66 °FPassing clouds.3 mph56%30.12 "HgN/A
2:00 AM68 °FClear.3 mph56%30.12 "Hg10 mi
1:00 AM70 °FClear.6 mph50%30.12 "Hg10 mi
12:00 AM73 °FClear.1 mph44%30.12 "Hg10 mi
11:00 PM
Wed, Jul 1
73 °FPassing clouds.7 mph44%30.09 "HgN/A
10:00 PM81 °FPassing clouds.5 mph32%30.09 "HgN/A
9:00 PM82 °FPassing clouds.12 mph30%30.07 "HgN/A
8:00 PM84 °FPassing clouds.13 mph29%30.07 "HgN/A
7:00 PM86 °FPassing clouds.12 mph27%30.04 "HgN/A
6:00 PM88 °FPassing clouds.10 mph25%30.04 "HgN/A
Weather by CustomWeather, © 2015

See weather overviewHow to use our weather pages